Time,TemperatureF,DewpointF,PressureIn,WindDirection,WindDirectionDegrees,WindSpeedMPH,WindSpeedGustMPH,Humidity,HourlyPrecipIn,Conditions,Clouds,dailyrainin,SoftwareType,DateUTC
2013-11-23 00:01:00,51.4,49.8,29.97,West,277,0.0,5.0,94,0.00,,,0.08,meteohub,2013-11-23 05:01:00,
2013-11-23 00:02:00,51.4,49.8,29.97,West,259,1.0,5.0,94,0.00,,,0.08,meteohub,2013-11-23 05:02:00,
2013-11-23 00:03:00,51.3,49.6,29.97,WNW,285,1.0,5.0,94,0.00,,,0.08,meteohub,2013-11-23 05:03:00,
2013-11-23 00:08:00,51.3,49.6,29.97,WNW,283,0.0,5.0,94,0.00,,,0.00,meteohub,2013-11-23 05:08:00,
2013-11-23 00:13:00,51.3,49.6,29.97,West,278,2.0,5.0,94,0.00,,,0.00,meteohub,2013-11-23 05:13:00,
2013-11-23 00:18:00,51.3,49.6,29.98,WNW,302,1.0,6.0,94,0.00,,,0.00,meteohub,2013-11-23 05:18:00,
2013-11-23 00:23:00,51.1,49.5,29.98,West,280,2.0,6.0,94,0.00,,,0.00,meteohub,2013-11-23 05:23:00,
2013-11-23 00:28:00,51.1,49.5,29.97,WNW,296,5.0,6.0,94,0.00,,,0.00,meteohub,2013-11-23 05:28:00,
2013-11-23 00:33:00,51.3,49.3,29.98,WNW,297,3.0,6.0,93,0.00,,,0.00,meteohub,2013-11-23 05:33:00,
2013-11-23 00:38:00,51.4,49.5,29.98,WNW,303,4.0,8.0,93,0.00,,,0.00,meteohub,2013-11-23 05:38:00,
2013-11-23 00:43:00,51.6,49.5,29.98,WNW,293,4.0,8.0,92,0.00,,,0.00,meteohub,2013-11-23 05:43:00,
2013-11-23 00:48:00,52.0,49.5,29.98,WNW,285,5.0,8.0,91,0.00,,,0.00,meteohub,2013-11-23 05:48:00,
2013-11-23 00:53:00,52.3,49.3,29.98,NW,308,8.0,9.0,89,0.00,,,0.00,meteohub,2013-11-23 05:53:00,
2013-11-23 00:58:00,52.9,49.5,29.98,NW,304,3.0,11.0,88,0.00,,,0.00,meteohub,2013-11-23 05:58:00,
2013-11-23 01:03:00,52.9,49.1,29.98,WNW,300,1.0,11.0,87,0.00,,,0.00,meteohub,2013-11-23 06:03:00,
2013-11-23 01:08:00,53.1,48.9,29.98,NNW,347,0.0,11.0,86,0.00,,,0.00,meteohub,2013-11-23 06:08:00,
2013-11-23 01:13:00,53.1,48.4,29.98,NW,323,1.0,11.0,84,0.00,,,0.00,meteohub,2013-11-23 06:13:00,
2013-11-23 01:18:00,53.2,48.2,29.98,NW,324,1.0,11.0,83,0.00,,,0.00,meteohub,2013-11-23 06:18:00,
2013-11-23 01:23:00,53.1,47.3,29.98,WNW,287,11.0,11.0,81,0.00,,,0.00,meteohub,2013-11-23 06:23:00,
2013-11-23 01:28:00,53.2,46.2,29.98,NW,317,5.0,16.0,77,0.00,,,0.00,meteohub,2013-11-23 06:28:00,
2013-11-23 01:33:00,53.2,45.9,29.99,WNW,298,6.0,16.0,76,0.00,,,0.00,meteohub,2013-11-23 06:33:00,
2013-11-23 01:39:00,53.1,45.3,29.98,NW,308,7.0,16.0,75,0.00,,,0.00,meteohub,2013-11-23 06:39:00,
2013-11-23 01:44:00,52.9,45.5,29.99,WNW,294,11.0,18.0,76,0.00,,,0.00,meteohub,2013-11-23 06:44:00,
2013-11-23 01:49:00,52.5,44.8,29.99,NW,309,9.0,18.0,75,0.00,,,0.00,meteohub,2013-11-23 06:49:00,
2013-11-23 01:54:00,52.3,44.2,29.99,NNW,329,5.0,20.0,74,0.00,,,0.00,meteohub,2013-11-23 06:54:00,
2013-11-23 01:59:00,52.0,43.9,29.99,North,349,6.0,20.0,74,0.00,,,0.00,meteohub,2013-11-23 06:59:00,
2013-11-23 02:04:00,51.6,43.9,29.99,WNW,300,4.0,20.0,75,0.00,,,0.00,meteohub,2013-11-23 07:04:00,
2013-11-23 02:09:00,51.4,43.7,29.99,NW,315,3.0,15.0,75,0.00,,,0.00,meteohub,2013-11-23 07:09:00,
2013-11-23 02:14:00,51.3,43.9,30.00,NNE,31,3.0,14.0,76,0.00,,,0.00,meteohub,2013-11-23 07:14:00,
2013-11-23 02:19:00,50.9,43.5,30.00,NW,315,2.0,10.0,76,0.00,,,0.00,meteohub,2013-11-23 07:19:00,
2013-11-23 02:24:00,50.5,43.3,30.01,North,6,2.0,8.0,76,0.00,,,0.00,meteohub,2013-11-23 07:24:00,
2013-11-23 02:29:00,50.0,41.7,30.01,NNW,333,7.0,8.0,73,0.00,,,0.00,meteohub,2013-11-23 07:29:00,
2013-11-23 02:34:00,49.6,40.3,30.01,NW,326,10.0,14.0,70,0.00,,,0.00,meteohub,2013-11-23 07:34:00,
2013-11-23 02:39:00,49.3,39.9,30.01,NW,318,3.0,14.0,70,0.00,,,0.00,meteohub,2013-11-23 07:39:00,
2013-11-23 02:44:00,48.9,39.6,30.01,NNW,333,5.0,14.0,70,0.00,,,0.00,meteohub,2013-11-23 07:44:00,
2013-11-23 02:49:00,48.7,39.0,30.01,NW,308,7.0,12.0,69,0.00,,,0.00,meteohub,2013-11-23 07:49:00,
2013-11-23 02:54:00,48.6,38.8,30.01,NNW,341,3.0,15.0,69,0.00,,,0.00,meteohub,2013-11-23 07:54:00,
2013-11-23 02:59:00,48.4,37.6,30.01,WNW,302,13.0,15.0,66,0.00,,,0.00,meteohub,2013-11-23 07:59:00,
2013-11-23 03:04:00,48.0,36.9,30.01,WNW,298,9.0,16.0,65,0.00,,,0.00,meteohub,2013-11-23 08:04:00,
2013-11-23 03:09:00,47.8,36.3,30.01,NNW,345,7.0,16.0,64,0.00,,,0.00,meteohub,2013-11-23 08:09:00,
2013-11-23 03:14:00,47.8,35.4,30.01,NNW,345,14.0,16.0,62,0.00,,,0.00,meteohub,2013-11-23 08:14:00,
2013-11-23 03:19:00,47.7,35.2,30.01,North,0,5.0,16.0,62,0.00,,,0.00,meteohub,2013-11-23 08:19:00,
2013-11-23 03:24:00,47.5,35.1,30.01,NNW,328,4.0,16.0,62,0.00,,,0.00,meteohub,2013-11-23 08:24:00,
2013-11-23 03:29:00,47.1,35.2,30.01,NW,312,9.0,16.0,63,0.00,,,0.00,meteohub,2013-11-23 08:29:00,
2013-11-23 03:34:00,46.9,34.5,30.02,NW,307,4.0,14.0,62,0.00,,,0.00,meteohub,2013-11-23 08:34:00,
2013-11-23 03:39:00,46.8,34.5,30.01,NNW,335,3.0,13.0,62,0.00,,,0.00,meteohub,2013-11-23 08:39:00,
2013-11-23 03:44:00,46.6,34.3,30.01,North,349,3.0,14.0,62,0.00,,,0.00,meteohub,2013-11-23 08:44:00,
2013-11-23 03:49:00,46.4,34.2,30.01,NW,320,4.0,16.0,62,0.00,,,0.00,meteohub,2013-11-23 08:49:00,
2013-11-23 03:54:00,46.0,33.3,30.02,WNW,293,10.0,16.0,61,0.00,,,0.00,meteohub,2013-11-23 08:54:00,
2013-11-23 03:59:00,46.0,33.3,30.02,NNW,335,3.0,16.0,61,0.00,,,0.00,meteohub,2013-11-23 08:59:00,
2013-11-23 04:04:00,46.0,33.3,30.02,NNW,345,12.0,15.0,61,0.00,,,0.00,meteohub,2013-11-23 09:04:00,
2013-11-23 04:09:00,46.0,33.3,30.03,WSW,246,0.0,15.0,61,0.00,,,0.00,meteohub,2013-11-23 09:09:00,
2013-11-23 04:14:00,45.9,33.6,30.03,NNW,336,2.0,15.0,62,0.00,,,0.00,meteohub,2013-11-23 09:14:00,
2013-11-23 04:19:00,45.7,33.4,30.03,North,356,4.0,15.0,62,0.00,,,0.00,meteohub,2013-11-23 09:19:00,
2013-11-23 04:24:00,45.5,33.6,30.03,NW,326,4.0,10.0,63,0.00,,,0.00,meteohub,2013-11-23 09:24:00,
2013-11-23 04:29:00,45.3,33.8,30.04,WNW,292,2.0,10.0,64,0.00,,,0.00,meteohub,2013-11-23 09:29:00,
2013-11-23 04:34:00,45.1,34.2,30.04,NW,316,6.0,16.0,65,0.00,,,0.00,meteohub,2013-11-23 09:34:00,
2013-11-23 04:39:00,45.1,34.2,30.04,NNW,337,6.0,16.0,65,0.00,,,0.00,meteohub,2013-11-23 09:39:00,
2013-11-23 04:44:00,45.0,34.0,30.04,WNW,288,2.0,16.0,65,0.00,,,0.00,meteohub,2013-11-23 09:44:00,
2013-11-23 04:49:00,44.6,33.6,30.04,WNW,290,10.0,16.0,65,0.00,,,0.00,meteohub,2013-11-23 09:49:00,
2013-11-23 04:54:00,44.2,33.3,30.04,NW,309,6.0,16.0,65,0.00,,,0.00,meteohub,2013-11-23 09:54:00,
2013-11-23 04:59:00,44.1,33.1,30.04,NW,319,10.0,16.0,65,0.00,,,0.00,meteohub,2013-11-23 09:59:00,
2013-11-23 05:04:00,43.9,32.9,30.04,NNW,338,4.0,16.0,65,0.00,,,0.00,meteohub,2013-11-23 10:04:00,
2013-11-23 05:09:00,43.7,32.7,30.04,NW,316,7.0,16.0,65,0.00,,,0.00,meteohub,2013-11-23 10:09:00,
2013-11-23 05:14:00,43.5,32.5,30.05,NW,323,0.0,14.0,65,0.00,,,0.00,meteohub,2013-11-23 10:14:00,
2013-11-23 05:19:00,43.3,32.4,30.05,NE,34,4.0,12.0,65,0.00,,,0.00,meteohub,2013-11-23 10:19:00,
2013-11-23 05:24:00,43.2,32.5,30.05,WNW,287,5.0,12.0,66,0.00,,,0.00,meteohub,2013-11-23 10:24:00,
2013-11-23 05:29:00,43.0,32.4,30.05,NNW,345,2.0,12.0,66,0.00,,,0.00,meteohub,2013-11-23 10:29:00,
2013-11-23 05:35:00,42.8,32.2,30.05,NW,305,4.0,8.0,66,0.00,,,0.00,meteohub,2013-11-23 10:35:00,
2013-11-23 05:40:00,42.6,32.0,30.06,NE,50,0.0,9.0,66,0.00,,,0.00,meteohub,2013-11-23 10:40:00,
2013-11-23 05:45:00,42.4,32.2,30.06,North,352,3.0,10.0,67,0.00,,,0.00,meteohub,2013-11-23 10:45:00,
2013-11-23 05:50:00,42.3,32.5,30.06,North,357,6.0,10.0,68,0.00,,,0.00,meteohub,2013-11-23 10:50:00,
2013-11-23 05:55:00,42.1,32.4,30.06,NNE,29,4.0,10.0,68,0.00,,,0.00,meteohub,2013-11-23 10:55:00,
2013-11-23 06:00:00,41.9,32.2,30.06,NNW,336,2.0,13.0,68,0.00,,,0.00,meteohub,2013-11-23 11:00:00,
2013-11-23 06:05:00,41.7,32.0,30.06,NNW,338,4.0,17.0,68,0.00,,,0.00,meteohub,2013-11-23 11:05:00,
2013-11-23 06:10:00,41.4,31.6,30.06,NNW,343,4.0,17.0,68,0.00,,,0.00,meteohub,2013-11-23 11:10:00,
2013-11-23 06:15:00,41.0,31.3,30.07,NW,312,6.0,17.0,68,0.00,,,0.00,meteohub,2013-11-23 11:15:00,
2013-11-23 06:20:00,40.6,30.9,30.07,North,354,5.0,8.0,68,0.00,,,0.00,meteohub,2013-11-23 11:20:00,
2013-11-23 06:25:00,40.3,30.6,30.08,NW,305,6.0,7.0,68,0.00,,,0.00,meteohub,2013-11-23 11:25:00,
2013-11-23 06:30:00,39.9,30.2,30.08,NNE,13,3.0,7.0,68,0.00,,,0.00,meteohub,2013-11-23 11:30:00,
2013-11-23 06:35:00,39.7,30.4,30.08,North,4,4.0,8.0,69,0.00,,,0.00,meteohub,2013-11-23 11:35:00,
2013-11-23 06:40:00,39.6,29.8,30.09,WNW,301,1.0,8.0,68,0.00,,,0.00,meteohub,2013-11-23 11:40:00,
2013-11-23 06:45:00,39.2,29.5,30.09,ENE,65,1.0,8.0,68,0.00,,,0.00,meteohub,2013-11-23 11:45:00,
2013-11-23 06:50:00,38.8,28.8,30.09,NE,36,4.0,8.0,67,0.00,,,0.00,meteohub,2013-11-23 11:50:00,
2013-11-23 06:55:00,38.8,28.8,30.09,NW,321,3.0,11.0,67,0.00,,,0.00,meteohub,2013-11-23 11:55:00,
2013-11-23 07:00:00,38.7,27.9,30.09,North,1,3.0,11.0,65,0.00,,,0.00,meteohub,2013-11-23 12:00:00,
2013-11-23 07:05:00,38.5,27.7,30.09,North,0,2.0,11.0,65,0.00,,,0.00,meteohub,2013-11-23 12:05:00,
2013-11-23 07:10:00,38.5,27.7,30.09,WNW,300,0.0,9.0,65,0.00,,,0.00,meteohub,2013-11-23 12:10:00,
2013-11-23 07:15:00,38.3,27.5,30.09,WNW,287,4.0,9.0,65,0.00,,,0.00,meteohub,2013-11-23 12:15:00,
2013-11-23 07:20:00,38.1,27.9,30.09,WNW,302,3.0,10.0,66,0.00,,,0.00,meteohub,2013-11-23 12:20:00,
2013-11-23 07:25:00,38.1,27.9,30.09,WNW,290,2.0,10.0,66,0.00,,,0.00,meteohub,2013-11-23 12:25:00,
2013-11-23 07:30:00,38.1,27.9,30.09,WNW,287,5.0,10.0,66,0.00,,,0.00,meteohub,2013-11-23 12:30:00,
2013-11-23 07:35:00,38.1,27.9,30.10,West,277,3.0,9.0,66,0.00,,,0.00,meteohub,2013-11-23 12:35:00,
2013-11-23 07:40:00,38.1,27.9,30.10,NNW,347,3.0,9.0,66,0.00,,,0.00,meteohub,2013-11-23 12:40:00,
2013-11-23 07:45:00,38.3,27.9,30.10,NNW,330,2.0,9.0,66,0.00,,,0.00,meteohub,2013-11-23 12:45:00,
2013-11-23 07:50:00,38.3,27.9,30.10,NNW,332,2.0,8.0,66,0.00,,,0.00,meteohub,2013-11-23 12:50:00,
2013-11-23 07:55:00,38.5,28.0,30.10,WNW,287,6.0,12.0,66,0.00,,,0.00,meteohub,2013-11-23 12:55:00,
2013-11-23 08:00:00,38.5,28.0,30.10,NW,311,4.0,12.0,66,0.00,,,0.00,meteohub,2013-11-23 13:00:00,
2013-11-23 08:05:00,38.5,27.7,30.10,NNE,15,1.0,9.0,65,0.00,,,0.00,meteohub,2013-11-23 13:05:00,
2013-11-23 08:10:00,38.7,27.9,30.10,NNE,31,3.0,9.0,65,0.00,,,0.00,meteohub,2013-11-23 13:10:00,
2013-11-23 08:15:00,38.8,27.7,30.10,NW,313,3.0,9.0,64,0.00,,,0.00,meteohub,2013-11-23 13:15:00,
2013-11-23 08:20:00,39.0,27.9,30.10,West,273,8.0,11.0,64,0.00,,,0.00,meteohub,2013-11-23 13:20:00,
2013-11-23 08:25:00,39.0,27.5,30.10,NNW,333,1.0,11.0,63,0.00,,,0.00,meteohub,2013-11-23 13:25:00,
2013-11-23 08:30:00,39.4,27.5,30.10,WNW,300,1.0,11.0,62,0.00,,,0.00,meteohub,2013-11-23 13:30:00,
2013-11-23 08:35:00,39.6,27.1,30.10,WNW,293,5.0,10.0,61,0.00,,,0.00,meteohub,2013-11-23 13:35:00,
2013-11-23 08:40:00,39.7,27.3,30.10,NNW,341,6.0,10.0,61,0.00,,,0.00,meteohub,2013-11-23 13:40:00,
2013-11-23 08:45:00,39.9,27.1,30.10,WNW,297,2.0,10.0,60,0.00,,,0.00,meteohub,2013-11-23 13:45:00,
2013-11-23 08:50:00,39.9,27.1,30.10,NNW,336,2.0,10.0,60,0.00,,,0.00,meteohub,2013-11-23 13:50:00,
2013-11-23 08:55:00,40.1,26.6,30.10,NW,321,2.0,10.0,58,0.00,,,0.00,meteohub,2013-11-23 13:55:00,
2013-11-23 09:00:00,40.5,26.4,30.09,NNW,333,2.0,10.0,57,0.00,,,0.00,meteohub,2013-11-23 14:00:00,
2013-11-23 09:05:00,40.5,26.1,30.09,WNW,287,7.0,10.0,56,0.00,,,0.00,meteohub,2013-11-23 14:05:00,
2013-11-23 09:10:00,40.6,25.7,30.10,NW,319,9.0,14.0,55,0.00,,,0.00,meteohub,2013-11-23 14:10:00,
2013-11-23 09:15:00,41.0,25.7,30.10,NW,324,2.0,14.0,54,0.00,,,0.00,meteohub,2013-11-23 14:15:00,
2013-11-23 09:20:00,41.2,25.9,30.10,WNW,293,7.0,14.0,54,0.00,,,0.00,meteohub,2013-11-23 14:20:00,
2013-11-23 09:25:00,41.4,26.4,30.10,NNW,336,6.0,11.0,55,0.00,,,0.00,meteohub,2013-11-23 14:25:00,
2013-11-23 09:30:00,41.5,25.2,30.10,WNW,298,4.0,16.0,52,0.00,,,0.00,meteohub,2013-11-23 14:30:00,
2013-11-23 09:35:00,41.5,25.2,30.10,WNW,294,6.0,16.0,52,0.00,,,0.00,meteohub,2013-11-23 14:35:00,
2013-11-23 09:40:00,41.5,24.8,30.10,NNW,332,5.0,16.0,51,0.00,,,0.00,meteohub,2013-11-23 14:40:00,
2013-11-23 09:45:00,41.5,24.8,30.10,NW,312,6.0,16.0,51,0.00,,,0.00,meteohub,2013-11-23 14:45:00,
2013-11-23 09:50:00,41.9,25.2,30.10,NW,322,2.0,16.0,51,0.00,,,0.00,meteohub,2013-11-23 14:50:00,
2013-11-23 09:55:00,42.3,25.3,30.09,NW,323,2.0,12.0,51,0.00,,,0.00,meteohub,2013-11-23 14:55:00,
2013-11-23 10:00:00,42.6,25.3,30.09,WNW,300,1.0,10.0,50,0.00,,,0.00,meteohub,2013-11-23 15:00:00,
2013-11-23 10:05:00,43.0,25.7,30.09,NW,304,12.0,12.0,50,0.00,,,0.00,meteohub,2013-11-23 15:05:00,
2013-11-23 10:10:00,42.8,25.0,30.09,WNW,288,7.0,12.0,49,0.00,,,0.00,meteohub,2013-11-23 15:10:00,
2013-11-23 10:15:00,42.8,25.9,30.09,West,274,6.0,12.0,51,0.00,,,0.00,meteohub,2013-11-23 15:15:00,
2013-11-23 10:20:00,42.8,25.5,30.09,NW,315,3.0,12.0,50,0.00,,,0.00,meteohub,2013-11-23 15:20:00,
2013-11-23 10:25:00,43.2,26.2,30.09,NE,38,1.0,9.0,51,0.00,,,0.00,meteohub,2013-11-23 15:25:00,
2013-11-23 10:30:00,43.3,25.9,30.09,West,279,5.0,10.0,50,0.00,,,0.00,meteohub,2013-11-23 15:30:00,
2013-11-23 10:36:00,43.5,25.7,30.09,WNW,294,4.0,10.0,49,0.00,,,0.00,meteohub,2013-11-23 15:36:00,
2013-11-23 10:41:00,43.3,24.4,30.09,NW,314,4.0,11.0,47,0.00,,,0.00,meteohub,2013-11-23 15:41:00,
2013-11-23 10:46:00,43.7,24.8,30.08,WNW,294,4.0,12.0,47,0.00,,,0.00,meteohub,2013-11-23 15:46:00,
2013-11-23 10:51:00,44.1,24.1,30.08,West,271,4.0,12.0,45,0.00,,,0.00,meteohub,2013-11-23 15:51:00,
2013-11-23 10:56:00,44.1,25.2,30.08,WNW,290,3.0,12.0,47,0.00,,,0.00,meteohub,2013-11-23 15:56:00,
2013-11-23 11:01:00,44.2,25.3,30.08,WNW,294,4.0,11.0,47,0.00,,,0.00,meteohub,2013-11-23 16:01:00,
2013-11-23 11:06:00,44.4,25.9,30.07,WSW,246,4.0,11.0,48,0.00,,,0.00,meteohub,2013-11-23 16:06:00,
2013-11-23 11:11:00,44.4,25.9,30.07,WNW,297,5.0,12.0,48,0.00,,,0.00,meteohub,2013-11-23 16:11:00,
2013-11-23 11:16:00,44.4,25.9,30.07,WNW,295,8.0,12.0,48,0.00,,,0.00,meteohub,2013-11-23 16:16:00,
2013-11-23 11:21:00,44.8,25.7,30.07,WNW,293,7.0,12.0,47,0.00,,,0.00,meteohub,2013-11-23 16:21:00,
2013-11-23 11:26:00,45.0,25.3,30.06,West,277,3.0,11.0,46,0.00,,,0.00,meteohub,2013-11-23 16:26:00,
2013-11-23 11:31:00,45.1,26.1,30.06,ENE,68,2.0,11.0,47,0.00,,,0.00,meteohub,2013-11-23 16:31:00,
2013-11-23 11:36:00,45.3,25.7,30.06,WNW,301,6.0,10.0,46,0.00,,,0.00,meteohub,2013-11-23 16:36:00,
2013-11-23 11:41:00,45.0,24.4,30.06,NW,308,4.0,12.0,44,0.00,,,0.00,meteohub,2013-11-23 16:41:00,
2013-11-23 11:46:00,45.1,23.9,30.06,NW,309,4.0,12.0,43,0.00,,,0.00,meteohub,2013-11-23 16:46:00,
2013-11-23 11:51:00,45.0,23.7,30.05,NW,304,3.0,12.0,43,0.00,,,0.00,meteohub,2013-11-23 16:51:00,
2013-11-23 11:56:00,45.0,23.7,30.05,NNW,343,5.0,15.0,43,0.00,,,0.00,meteohub,2013-11-23 16:56:00,
2013-11-23 12:01:00,45.1,23.4,30.04,WNW,300,8.0,15.0,42,0.00,,,0.00,meteohub,2013-11-23 17:01:00,
2013-11-23 12:06:00,45.3,23.5,30.04,WNW,290,9.0,16.0,42,0.00,,,0.00,meteohub,2013-11-23 17:06:00,
2013-11-23 12:11:00,45.5,23.7,30.03,WSW,257,8.0,16.0,42,0.00,,,0.00,meteohub,2013-11-23 17:11:00,
2013-11-23 12:16:00,45.7,23.4,30.03,NE,38,4.0,16.0,41,0.00,,,0.00,meteohub,2013-11-23 17:16:00,
2013-11-23 12:21:00,45.7,23.9,30.03,WSW,252,0.0,12.0,42,0.00,,,0.00,meteohub,2013-11-23 17:21:00,
2013-11-23 12:26:00,45.7,22.8,30.03,WNW,297,7.0,12.0,40,0.00,,,0.00,meteohub,2013-11-23 17:26:00,
2013-11-23 12:31:00,45.7,22.8,30.02,NW,307,8.0,14.0,40,0.00,,,0.00,meteohub,2013-11-23 17:31:00,
2013-11-23 12:36:00,45.5,23.2,30.02,NW,305,6.0,14.0,41,0.00,,,0.00,meteohub,2013-11-23 17:36:00,
2013-11-23 12:41:00,45.7,23.9,30.02,WNW,288,5.0,15.0,42,0.00,,,0.00,meteohub,2013-11-23 17:41:00,
2013-11-23 12:46:00,45.9,22.3,30.02,NW,317,8.0,15.0,39,0.00,,,0.00,meteohub,2013-11-23 17:46:00,
2013-11-23 12:51:00,45.7,22.1,30.02,WNW,294,13.0,15.0,39,0.00,,,0.00,meteohub,2013-11-23 17:51:00,
2013-11-23 12:56:00,45.3,21.2,30.01,NW,319,9.0,15.0,38,0.00,,,0.00,meteohub,2013-11-23 17:56:00,
2013-11-23 13:01:00,45.5,21.9,30.01,NNW,347,11.0,16.0,39,0.00,,,0.00,meteohub,2013-11-23 18:01:00,
2013-11-23 13:06:00,45.3,22.5,30.01,WNW,290,6.0,16.0,40,0.00,,,0.00,meteohub,2013-11-23 18:06:00,
2013-11-23 13:11:00,45.7,22.1,30.01,NW,317,3.0,16.0,39,0.00,,,0.00,meteohub,2013-11-23 18:11:00,
2013-11-23 13:16:00,45.7,22.8,30.00,NNW,332,3.0,15.0,40,0.00,,,0.00,meteohub,2013-11-23 18:16:00,
2013-11-23 13:21:00,45.7,22.1,30.00,WNW,295,7.0,12.0,39,0.00,,,0.00,meteohub,2013-11-23 18:21:00,
2013-11-23 13:26:00,45.5,22.6,30.00,NW,307,5.0,13.0,40,0.00,,,0.00,meteohub,2013-11-23 18:26:00,
2013-11-23 13:31:00,45.5,22.6,30.00,West,278,7.0,13.0,40,0.00,,,0.00,meteohub,2013-11-23 18:31:00,
2013-11-23 13:36:00,45.5,23.2,30.00,WNW,290,7.0,15.0,41,0.00,,,0.00,meteohub,2013-11-23 18:36:00,
2013-11-23 13:41:00,45.7,23.9,30.00,WNW,287,10.0,16.0,42,0.00,,,0.00,meteohub,2013-11-23 18:41:00,
2013-11-23 13:46:00,45.9,24.1,29.99,West,260,8.0,16.0,42,0.00,,,0.00,meteohub,2013-11-23 18:46:00,
2013-11-23 13:51:00,46.0,23.7,29.99,West,275,10.0,16.0,41,0.00,,,0.00,meteohub,2013-11-23 18:51:00,
2013-11-23 13:56:00,46.0,23.0,29.99,NW,312,12.0,15.0,40,0.00,,,0.00,meteohub,2013-11-23 18:56:00,
2013-11-23 14:01:00,46.0,23.0,29.99,WNW,294,7.0,15.0,40,0.00,,,0.00,meteohub,2013-11-23 19:01:00,
2013-11-23 14:06:00,45.9,23.5,29.99,WNW,290,7.0,14.0,41,0.00,,,0.00,meteohub,2013-11-23 19:06:00,
2013-11-23 14:11:00,45.7,23.9,29.99,WNW,287,6.0,14.0,42,0.00,,,0.00,meteohub,2013-11-23 19:11:00,
2013-11-23 14:16:00,45.7,23.9,29.99,West,277,3.0,14.0,42,0.00,,,0.00,meteohub,2013-11-23 19:16:00,
2013-11-23 14:21:00,45.7,21.6,29.98,NW,315,12.0,14.0,38,0.00,,,0.00,meteohub,2013-11-23 19:21:00,
2013-11-23 14:26:00,45.7,22.1,29.98,WNW,287,6.0,19.0,39,0.00,,,0.00,meteohub,2013-11-23 19:26:00,
2013-11-23 14:31:00,45.7,23.4,29.99,SW,215,4.0,19.0,41,0.00,,,0.00,meteohub,2013-11-23 19:31:00,
2013-11-23 14:36:00,45.7,22.1,29.99,West,276,5.0,19.0,39,0.00,,,0.00,meteohub,2013-11-23 19:36:00,
2013-11-23 14:41:00,45.5,21.4,29.99,WNW,297,12.0,16.0,38,0.00,,,0.00,meteohub,2013-11-23 19:41:00,
2013-11-23 14:46:00,45.1,20.5,29.99,NW,307,7.0,18.0,37,0.00,,,0.00,meteohub,2013-11-23 19:46:00,
2013-11-23 14:51:00,45.0,21.6,29.99,WNW,296,8.0,18.0,39,0.00,,,0.00,meteohub,2013-11-23 19:51:00,
2013-11-23 14:56:00,44.8,21.4,29.99,WNW,292,4.0,18.0,39,0.00,,,0.00,meteohub,2013-11-23 19:56:00,
2013-11-23 15:01:00,44.6,21.7,29.99,West,277,8.0,17.0,40,0.00,,,0.00,meteohub,2013-11-23 20:01:00,
2013-11-23 15:06:00,44.4,22.1,29.99,NNW,338,7.0,17.0,41,0.00,,,0.00,meteohub,2013-11-23 20:06:00,
2013-11-23 15:11:00,44.2,22.6,29.99,West,266,9.0,17.0,42,0.00,,,0.00,meteohub,2013-11-23 20:11:00,
2013-11-23 15:16:00,44.1,22.5,29.99,NW,311,10.0,17.0,42,0.00,,,0.00,meteohub,2013-11-23 20:16:00,
2013-11-23 15:21:00,43.9,22.8,29.99,NW,311,11.0,20.0,43,0.00,,,0.00,meteohub,2013-11-23 20:21:00,
2013-11-23 15:26:00,43.9,23.4,29.98,ENE,68,10.0,20.0,44,0.00,,,0.00,meteohub,2013-11-23 20:26:00,
2013-11-23 15:31:00,43.9,23.4,29.98,WNW,284,4.0,20.0,44,0.00,,,0.00,meteohub,2013-11-23 20:31:00,
2013-11-23 15:36:00,43.9,23.4,29.98,NNW,336,5.0,17.0,44,0.00,,,0.00,meteohub,2013-11-23 20:36:00,
2013-11-23 15:41:00,44.1,24.1,29.99,NW,304,6.0,16.0,45,0.00,,,0.00,meteohub,2013-11-23 20:41:00,
2013-11-23 15:47:00,43.9,23.4,29.98,WNW,283,5.0,16.0,44,0.00,,,0.00,meteohub,2013-11-23 20:47:00,
2013-11-23 15:52:00,44.1,24.1,29.98,WNW,300,4.0,13.0,45,0.00,,,0.00,meteohub,2013-11-23 20:52:00,
2013-11-23 15:57:00,44.1,24.1,29.98,WNW,297,6.0,13.0,45,0.00,,,0.00,meteohub,2013-11-23 20:57:00,
2013-11-23 16:02:00,44.1,23.5,29.97,West,281,6.0,15.0,44,0.00,,,0.00,meteohub,2013-11-23 21:02:00,
2013-11-23 16:07:00,43.9,23.9,29.97,NNW,345,6.0,15.0,45,0.00,,,0.00,meteohub,2013-11-23 21:07:00,
2013-11-23 16:12:00,43.9,23.9,29.97,West,281,9.0,15.0,45,0.00,,,0.00,meteohub,2013-11-23 21:12:00,
2013-11-23 16:17:00,43.9,23.4,29.97,NNE,20,3.0,15.0,44,0.00,,,0.00,meteohub,2013-11-23 21:17:00,
2013-11-23 16:22:00,43.7,23.7,29.97,WSW,257,8.0,16.0,45,0.00,,,0.00,meteohub,2013-11-23 21:22:00,
2013-11-23 16:27:00,43.5,24.1,29.97,WNW,288,7.0,16.0,46,0.00,,,0.00,meteohub,2013-11-23 21:27:00,
2013-11-23 16:32:00,43.3,24.4,29.97,WNW,290,8.0,16.0,47,0.00,,,0.00,meteohub,2013-11-23 21:32:00,
2013-11-23 16:37:00,43.2,24.8,29.98,WSW,256,5.0,12.0,48,0.00,,,0.00,meteohub,2013-11-23 21:37:00,
2013-11-23 16:42:00,43.2,24.8,29.98,WNW,288,5.0,12.0,48,0.00,,,0.00,meteohub,2013-11-23 21:42:00,
2013-11-23 16:47:00,43.2,24.8,29.98,WNW,301,5.0,10.0,48,0.00,,,0.00,meteohub,2013-11-23 21:47:00,
2013-11-23 16:52:00,43.2,24.8,29.98,WNW,300,5.0,10.0,48,0.00,,,0.00,meteohub,2013-11-23 21:52:00,
2013-11-23 16:57:00,43.0,24.6,29.98,West,277,8.0,12.0,48,0.00,,,0.00,meteohub,2013-11-23 21:57:00,
2013-11-23 17:02:00,43.0,24.1,29.98,WNW,285,7.0,12.0,47,0.00,,,0.00,meteohub,2013-11-23 22:02:00,
2013-11-23 17:07:00,43.0,23.5,29.99,WNW,292,11.0,15.0,46,0.00,,,0.00,meteohub,2013-11-23 22:07:00,
2013-11-23 17:12:00,43.0,23.5,29.99,WNW,292,6.0,21.0,46,0.00,,,0.00,meteohub,2013-11-23 22:12:00,
2013-11-23 17:17:00,43.0,23.5,29.99,WNW,291,8.0,21.0,46,0.00,,,0.00,meteohub,2013-11-23 22:17:00,
2013-11-23 17:22:00,42.8,23.4,29.99,WNW,287,5.0,21.0,46,0.00,,,0.00,meteohub,2013-11-23 22:22:00,
2013-11-23 17:27:00,42.6,22.8,29.99,West,277,8.0,14.0,45,0.00,,,0.00,meteohub,2013-11-23 22:27:00,
2013-11-23 17:32:00,42.6,21.7,29.99,WNW,294,10.0,15.0,43,0.00,,,0.00,meteohub,2013-11-23 22:32:00,
2013-11-23 17:37:00,42.6,21.7,29.98,West,271,10.0,21.0,43,0.00,,,0.00,meteohub,2013-11-23 22:37:00,
2013-11-23 17:42:00,42.6,21.7,29.99,West,281,10.0,21.0,43,0.00,,,0.00,meteohub,2013-11-23 22:42:00,
2013-11-23 17:47:00,42.4,22.1,29.99,WNW,293,9.0,21.0,44,0.00,,,0.00,meteohub,2013-11-23 22:47:00,
2013-11-23 17:52:00,42.4,22.1,29.99,WNW,302,10.0,19.0,44,0.00,,,0.00,meteohub,2013-11-23 22:52:00,
2013-11-23 17:57:00,42.3,21.9,29.99,WNW,284,6.0,19.0,44,0.00,,,0.00,meteohub,2013-11-23 22:57:00,
2013-11-23 18:02:00,42.3,22.5,29.99,West,270,8.0,18.0,45,0.00,,,0.00,meteohub,2013-11-23 23:02:00,
2013-11-23 18:07:00,42.1,22.3,29.99,West,281,9.0,17.0,45,0.00,,,0.00,meteohub,2013-11-23 23:07:00,
2013-11-23 18:09:00,42.1,21.7,29.99,West,281,9.0,17.0,44,0.00,,,0.00,meteohub,2013-11-23 23:09:00,
2013-11-23 18:14:00,41.9,22.1,29.99,WNW,294,8.0,17.0,45,0.00,,,0.00,meteohub,2013-11-23 23:14:00,
2013-11-23 18:19:00,41.7,21.9,29.99,West,269,5.0,16.0,45,0.00,,,0.00,meteohub,2013-11-23 23:19:00,
2013-11-23 18:24:00,41.7,21.9,29.99,WSW,256,4.0,16.0,45,0.00,,,0.00,meteohub,2013-11-23 23:24:00,
2013-11-23 18:29:00,41.7,21.9,29.99,West,271,10.0,16.0,45,0.00,,,0.00,meteohub,2013-11-23 23:29:00,
2013-11-23 18:34:00,41.7,21.9,29.99,NW,312,10.0,19.0,45,0.00,,,0.00,meteohub,2013-11-23 23:34:00,
2013-11-23 18:39:00,41.5,21.7,30.00,WNW,298,7.0,19.0,45,0.00,,,0.00,meteohub,2013-11-23 23:39:00,
2013-11-23 18:44:00,41.5,22.3,30.00,WNW,283,9.0,19.0,46,0.00,,,0.00,meteohub,2013-11-23 23:44:00,
2013-11-23 18:49:00,41.4,22.6,30.00,West,281,6.0,16.0,47,0.00,,,0.00,meteohub,2013-11-23 23:49:00,
2013-11-23 18:54:00,41.2,23.5,30.00,NW,320,10.0,16.0,49,0.00,,,0.00,meteohub,2013-11-23 23:54:00,
2013-11-23 18:59:00,40.8,24.1,30.01,NW,304,6.0,18.0,51,0.00,,,0.00,meteohub,2013-11-23 23:59:00,
2013-11-23 19:04:00,40.5,26.1,30.01,WNW,302,8.0,21.0,56,0.00,,,0.00,meteohub,2013-11-24 00:04:00,
2013-11-23 19:09:00,39.7,26.2,30.00,WNW,283,18.0,24.0,58,0.00,,,0.00,meteohub,2013-11-24 00:09:00,
2013-11-23 19:14:00,39.4,26.2,30.01,West,268,6.0,24.0,59,0.00,,,0.00,meteohub,2013-11-24 00:14:00,
2013-11-23 19:19:00,39.0,25.9,30.01,NW,326,9.0,24.0,59,0.00,,,0.00,meteohub,2013-11-24 00:19:00,
2013-11-23 19:24:00,38.8,25.7,30.01,NW,313,9.0,18.0,59,0.00,,,0.00,meteohub,2013-11-24 00:24:00,
2013-11-23 19:29:00,38.8,26.1,30.01,West,276,10.0,18.0,60,0.00,,,0.00,meteohub,2013-11-24 00:29:00,
2013-11-23 19:34:00,38.5,26.2,30.01,WNW,290,5.0,18.0,61,0.00,,,0.00,meteohub,2013-11-24 00:34:00,
2013-11-23 19:39:00,38.5,26.6,30.01,NNW,336,5.0,18.0,62,0.00,,,0.00,meteohub,2013-11-24 00:39:00,
2013-11-23 19:44:00,38.3,26.4,30.01,WNW,298,7.0,18.0,62,0.00,,,0.00,meteohub,2013-11-24 00:44:00,
2013-11-23 19:49:00,38.3,26.8,30.03,North,353,18.0,18.0,63,0.00,,,0.00,meteohub,2013-11-24 00:49:00,
2013-11-23 19:54:00,35.2,28.0,30.04,NNW,336,6.0,20.0,75,0.00,,,0.00,meteohub,2013-11-24 00:54:00,
2013-11-23 19:59:00,33.6,28.0,30.04,NW,325,8.0,23.0,80,0.00,,,0.00,meteohub,2013-11-24 00:59:00,
2013-11-23 20:04:00,32.9,28.6,30.04,WNW,300,16.0,23.0,84,0.00,,,0.00,meteohub,2013-11-24 01:04:00,
2013-11-23 20:09:00,32.7,27.9,30.04,NW,309,6.0,23.0,82,0.00,,,0.00,meteohub,2013-11-24 01:09:00,
2013-11-23 20:14:00,33.1,27.5,30.04,WNW,290,5.0,18.0,80,0.00,,,0.00,meteohub,2013-11-24 01:14:00,
2013-11-23 20:19:00,33.4,27.0,30.04,NW,308,7.0,16.0,77,0.00,,,0.00,meteohub,2013-11-24 01:19:00,
2013-11-23 20:24:00,33.8,26.4,30.04,WNW,291,5.0,15.0,74,0.00,,,0.00,meteohub,2013-11-24 01:24:00,
2013-11-23 20:29:00,34.0,26.2,30.04,NW,311,8.0,15.0,73,0.00,,,0.00,meteohub,2013-11-24 01:29:00,
2013-11-23 20:34:00,34.2,26.4,30.04,WNW,298,4.0,13.0,73,0.00,,,0.00,meteohub,2013-11-24 01:34:00,
2013-11-23 20:39:00,34.3,26.2,30.04,NW,312,8.0,12.0,72,0.00,,,0.00,meteohub,2013-11-24 01:39:00,
2013-11-23 20:44:00,34.3,26.2,30.05,WNW,290,9.0,15.0,72,0.00,,,0.00,meteohub,2013-11-24 01:44:00,
2013-11-23 20:49:00,34.3,25.9,30.05,WNW,290,4.0,15.0,71,0.00,,,0.00,meteohub,2013-11-24 01:49:00,
2013-11-23 20:54:00,34.5,26.1,30.05,West,267,6.0,19.0,71,0.00,,,0.00,meteohub,2013-11-24 01:54:00,
2013-11-23 20:59:00,34.3,25.5,30.05,NW,311,6.0,19.0,70,0.00,,,0.00,meteohub,2013-11-24 01:59:00,
2013-11-23 21:04:00,34.3,25.5,30.05,NW,309,6.0,19.0,70,0.00,,,0.00,meteohub,2013-11-24 02:04:00,
2013-11-23 21:09:00,34.3,25.2,30.05,NW,316,2.0,13.0,69,0.00,,,0.00,meteohub,2013-11-24 02:09:00,
2013-11-23 21:14:00,34.3,24.8,30.05,NW,317,6.0,12.0,68,0.00,,,0.00,meteohub,2013-11-24 02:14:00,
2013-11-23 21:19:00,34.2,24.6,30.05,WNW,300,3.0,11.0,68,0.00,,,0.00,meteohub,2013-11-24 02:19:00,
2013-11-23 21:24:00,34.0,23.9,30.05,NW,308,5.0,11.0,66,0.00,,,0.00,meteohub,2013-11-24 02:24:00,
2013-11-23 21:29:00,34.0,21.9,30.05,NNE,13,9.0,11.0,61,0.00,,,0.00,meteohub,2013-11-24 02:29:00,
2013-11-23 21:34:00,34.2,20.1,30.05,WNW,287,12.0,13.0,56,0.00,,,0.00,meteohub,2013-11-24 02:34:00,
2013-11-23 21:39:00,34.3,19.4,30.05,WNW,288,10.0,16.0,54,0.00,,,0.00,meteohub,2013-11-24 02:39:00,
2013-11-23 21:44:00,34.2,18.3,30.06,NNW,336,7.0,16.0,52,0.00,,,0.00,meteohub,2013-11-24 02:44:00,
2013-11-23 21:49:00,34.2,17.1,30.06,NW,308,4.0,19.0,49,0.00,,,0.00,meteohub,2013-11-24 02:49:00,
2013-11-23 21:54:00,34.0,15.8,30.06,NW,319,8.0,19.0,47,0.00,,,0.00,meteohub,2013-11-24 02:54:00,
2013-11-23 21:59:00,34.0,16.3,30.06,WNW,290,7.0,19.0,48,0.00,,,0.00,meteohub,2013-11-24 02:59:00,
2013-11-23 22:04:00,34.0,15.4,30.06,NNE,20,8.0,18.0,46,0.00,,,0.00,meteohub,2013-11-24 03:04:00,
2013-11-23 22:09:00,33.6,14.5,30.06,WNW,291,11.0,17.0,45,0.00,,,0.00,meteohub,2013-11-24 03:09:00,
2013-11-23 22:14:00,33.6,13.5,30.07,NE,50,5.0,18.0,43,0.00,,,0.00,meteohub,2013-11-24 03:14:00,
2013-11-23 22:19:00,33.4,13.8,30.07,NW,326,8.0,18.0,44,0.00,,,0.00,meteohub,2013-11-24 03:19:00,
2013-11-23 22:24:00,33.3,13.1,30.07,West,280,9.0,18.0,43,0.00,,,0.00,meteohub,2013-11-24 03:24:00,
2013-11-23 22:29:00,33.1,13.5,30.07,NW,326,7.0,15.0,44,0.00,,,0.00,meteohub,2013-11-24 03:29:00,
2013-11-23 22:34:00,32.9,13.5,30.07,NW,324,3.0,14.0,44,0.00,,,0.00,meteohub,2013-11-24 03:34:00,
2013-11-23 22:39:00,32.7,13.6,30.07,WNW,293,6.0,14.0,45,0.00,,,0.00,meteohub,2013-11-24 03:39:00,
2013-11-23 22:44:00,32.7,13.6,30.07,WNW,300,7.0,14.0,45,0.00,,,0.00,meteohub,2013-11-24 03:44:00,
2013-11-23 22:49:00,32.7,13.6,30.07,NNW,333,12.0,14.0,45,0.00,,,0.00,meteohub,2013-11-24 03:49:00,
2013-11-23 22:54:00,32.5,13.6,30.08,WNW,297,13.0,16.0,45,0.00,,,0.00,meteohub,2013-11-24 03:54:00,
2013-11-23 22:59:00,32.5,13.6,30.08,NW,306,7.0,19.0,45,0.00,,,0.00,meteohub,2013-11-24 03:59:00,
2013-11-23 23:04:00,32.5,13.6,30.08,NW,304,4.0,19.0,45,0.00,,,0.00,meteohub,2013-11-24 04:04:00,
2013-11-23 23:09:00,32.4,13.8,30.08,NNW,342,10.0,19.0,46,0.00,,,0.00,meteohub,2013-11-24 04:09:00,
2013-11-23 23:14:00,32.4,13.5,30.08,NNW,332,6.0,18.0,45,0.00,,,0.00,meteohub,2013-11-24 04:14:00,
2013-11-23 23:19:00,32.2,13.6,30.08,NW,318,6.0,17.0,46,0.00,,,0.00,meteohub,2013-11-24 04:19:00,
2013-11-23 23:24:00,32.0,13.6,30.08,NW,316,4.0,16.0,46,0.00,,,0.00,meteohub,2013-11-24 04:24:00,
2013-11-23 23:29:00,31.8,13.8,30.08,WNW,291,7.0,16.0,47,0.00,,,0.00,meteohub,2013-11-24 04:29:00,
2013-11-23 23:34:00,31.8,13.5,30.08,NW,311,4.0,17.0,46,0.00,,,0.00,meteohub,2013-11-24 04:34:00,
2013-11-23 23:39:00,31.8,13.8,30.09,WNW,287,12.0,19.0,47,0.00,,,0.00,meteohub,2013-11-24 04:39:00,
2013-11-23 23:44:00,31.5,13.6,30.08,NW,326,8.0,19.0,47,0.00,,,0.00,meteohub,2013-11-24 04:44:00,
2013-11-23 23:49:00,31.3,13.8,30.09,NW,304,11.0,19.0,48,0.00,,,0.00,meteohub,2013-11-24 04:49:00,
2013-11-23 23:54:00,31.1,14.2,30.09,WNW,302,8.0,18.0,49,0.00,,,0.00,meteohub,2013-11-24 04:54:00,
2013-11-23 23:59:00,30.9,14.0,30.09,NNE,27,5.0,18.0,49,0.00,,,0.00,meteohub,2013-11-24 04:59:00,